If you wish to contribute or participate in the discussions about articles you are invited to join SKYbrary as a registered user

 Actions

Atyrau Airport

From SKYbrary Wiki

UATG
Airport
ICAO: UATG – IATA: GUW
Summary
Name Atyrau Airport
Region Asia and Pacific
Territory Kazakhstan KZ.gif
Location Atyrau
Serving Atyrau
Elevation -21.946 m
-72 ft
-72 ft-21.946 m
Coordinates 47° 7' 19.23" N, 51° 49' 23.51" E
Runways
Designator Length Width Surface ROPS
14/32 3000 m9,842.52 ft
44 m144.357 ft
ASP yes/yes


METAR
Observation UATG 170200Z 07004MPS CAVOK 04/01 Q1029 R32/CLRD70 NOSIG RMK QFE774/1032
Station ATYRAU
Date/Time 17 October 2019 02:00:00
Wind direction 70°
Wind speed kts
Lowest cloud amount clouds and visibility OK
Temperature 4°C
Dew point 1°C
Humidity 80%
QNH 1029 hPa
Weather condition n/a

BS
Tag(s) Bird Strike
CFIT
Tag(s) Altimeter Temperature Error Correction
WX
Tag(s) Cumulonimbus
Fog
Freezing Rain

Atyrau Airport

ICAO: UATG IATA: GUW

Description

International airport serving Atyrau, Kazakhstan.

Climatology

Cold Semi-arid climate (Köppen climate classification BSk). - Hot, sometimes extremely hot summers and cold, sometimes very cold winters. Some snowfall during the winter. Areas featuring cold semi-arid climates are sometimes subject to major temperature swings during a 24 hour period.

Maps

Terrain

Loading map...

Airport Layout

Loading map...


Accidents & Serious Incidents at or in vicinity of UATG

None on SKYbrary